#timestamp,LO_Frequency,Hit 
1499965215.4,286046929.3,N
1499965235.3,286046929.6,N
1499965255.1,286046927.9,N
1499965275.8,286046930.2,N
1499965295.7,286046930.0,N
1499965315.5,286046931.0,N
1499965335.3,286046932.8,N
1499965355.2,286046931.1,N
1499965375.9,286046933.9,N
1499965395.7,286046932.5,N
1499965415.6,286046932.5,N
1499965435.4,286046933.0,N
1499965455.2,286046933.1,N
1499965475.0,286046931.8,N
1499965476.0,286046931.8,N
1499965495.8,286046932.4,N
1499965515.6,286046934.0,N
1499965535.4,286046931.3,N
1499965555.3,286046935.3,N
1499965575.1,286046931.3,N
1499965595.8,286046931.9,N
1499965615.7,286046933.3,N
1499965635.5,286046933.1,N
1499965655.3,286046935.1,N
1499965675.2,286046933.1,N
1499965695.9,286046933.2,N
1499965715.7,286046931.4,N
1499965735.6,286046933.4,N
1499965755.4,286046934.3,N
1499965775.2,286046935.3,N
1499965795.1,286046933.1,N
1499965796.0,286046933.1,N
1499965815.8,286046932.7,N
1499965835.6,286046935.6,N
1499965855.5,286046934.4,N
1499965875.3,286046936.9,N
1499965895.1,286046940.0,N
1499965915.8,286046941.0,N
1499965935.7,286046945.0,N
1499965955.5,286046941.7,N
1499965975.3,286046939.4,N
1499965995.2,286046938.9,N
1499966015.0,286046937.5,N
1499966015.9,286046937.5,N
1499966035.7,286046937.9,N
1499966055.6,286046938.5,N
1499966075.4,286046936.2,N
1499966095.2,286046938.8,N
1499966115.1,286046936.2,N
1499966116.0,286046936.2,N
1499966135.8,286046937.2,N
1499966155.6,286046937.1,N
1499966175.5,286046938.4,N
1499966195.3,286046936.3,N
1499966215.1,286046937.2,N
1499966235.9,286046937.9,N
1499966255.7,286046939.7,N
1499966275.5,286046937.7,N
1499966295.4,286046939.9,N
1499966315.2,286046937.3,N
1499966335.0,286046937.4,N
1499966335.9,286046937.4,N
1499966355.8,286046938.7,N
1499966375.6,286046936.5,N
1499966395.4,286046937.4,N
1499966415.2,286046939.8,N
1499966435.1,286046939.3,N
1499966436.0,286046939.3,N
1499966455.8,286046939.9,N
1499966475.6,286046937.9,N
1499966495.5,286046935.7,N
1499966515.3,286046936.9,N
1499966535.1,286046937.2,N
1499966555.9,286046936.4,N
1499966575.7,286046938.3,N
1499966595.5,286046938.3,N
1499966615.4,286046936.7,N
1499966635.2,286046938.3,N
1499966655.0,286046936.2,N
1499966655.9,286046936.2,N
1499966675.8,286046936.9,N
1499966695.6,286046938.0,N
1499966715.4,286046938.8,N
1499966735.3,286046938.6,N
1499966755.1,286046937.6,N
1499966756.0,286046937.6,N
1499966775.8,286046938.5,N
1499966795.7,286046938.6,N
1499966815.5,286046938.0,N
1499966835.3,286046939.7,N
1499966855.1,286046943.6,N
1499966875.9,286046940.6,N
1499966895.7,286046938.9,N
1499966915.5,286046937.8,N
1499966935.4,286046937.5,N
1499966955.2,286046937.9,N
1499966975.0,286046937.4,N
1499966975.9,286046937.4,N
1499966995.8,286046939.3,N
1499967015.6,286046940.0,N
1499967035.4,286046938.6,N
1499967055.3,286046940.1,N
1499967075.1,286046939.8,N
1499967076.0,286046939.8,N
1499967095.8,286046937.7,N
1499967115.7,286046940.2,N
1499967135.5,286046939.8,N
1499967155.3,286046944.5,N
1499967175.2,286046945.0,N
1499967195.9,286046942.6,N
1499967215.7,286046943.3,N
1499967235.5,286046945.0,N
1499967255.4,286046945.0,N
1499967275.2,286046944.9,N
1499967295.0,286046942.3,N
1499967295.9,286046942.3,N
1499967315.8,286046943.2,N
1499967335.6,286046946.3,N
1499967355.4,286046945.6,N
1499967375.3,286046946.1,N
1499967395.1,286046944.1,N
1499967415.8,286046944.5,N
1499967435.7,286046946.8,N
1499967455.5,286046944.2,N
1499967475.3,286046946.9,N
1499967495.2,286046947.0,N
1499967515.9,286046950.9,N
1499967535.7,286046951.3,N
1499967555.6,286046948.1,N
1499967575.4,286046946.6,N
1499967595.2,286046945.9,N
1499967615.1,286046947.1,N
1499967616.0,286046947.1,N
1499967635.8,286046945.7,N
1499967655.6,286046947.5,N
1499967675.5,286046951.6,N
1499967695.3,286046949.7,N
1499967715.1,286046949.6,N
1499967735.8,286046951.6,N
1499967755.7,286046948.5,N
1499967775.5,286046949.4,N
1499967795.3,286046950.0,N
1499967815.2,286046948.5,N
1499967835.9,286046951.4,N
1499967855.7,286046947.5,N
1499967875.6,286046949.0,N
1499967895.4,286046951.5,N
1499967915.2,286046950.4,N
1499967935.1,286046950.6,N
1499967936.0,286046950.6,N
1499967955.8,286046950.7,N
1499967975.6,286046950.7,N
1499967995.5,286046950.9,N
1499968015.3,286046948.9,N
1499968035.1,286046950.2,N
1499968055.8,286046954.4,N
1499968075.7,286046952.5,N
1499968095.5,286046953.9,N
1499968115.3,286046955.9,N
1499968135.2,286046954.5,N
1499968155.0,286046952.5,N
1499968155.9,286046952.5,N
1499968175.7,286046952.3,N
1499968195.6,286046952.8,N
1499968215.4,286046951.3,N
1499968235.2,286046952.7,N
1499968255.1,286046950.7,N
1499968256.0,286046950.7,N
1499968275.8,286046952.7,N
1499968295.6,286046950.6,N
1499968315.5,286046951.3,N
1499968335.3,286046950.6,N
1499968355.1,286046950.5,N
1499968375.9,286046951.2,N
1499968395.7,286046950.3,N
1499968415.5,286046950.7,N
1499968435.3,286046951.2,N
1499968455.2,286046950.9,N
1499968475.0,286046951.3,N
1499968475.9,286046951.3,N
1499968495.7,286046951.5,N
1499968515.6,286046951.5,N
1499968535.4,286046948.6,N
1499968555.2,286046950.3,N
1499968575.1,286046951.9,N
1499968576.0,286046951.9,N
1499968595.8,286046953.1,N
1499968615.6,286046953.2,N
1499968635.5,286046952.5,N
1499968655.3,286046953.0,N
1499968675.1,286046954.7,N
1499968695.9,286046954.4,N
1499968715.7,286046954.1,N
1499968735.5,286046953.4,N
1499968755.4,286046956.4,N
1499968775.2,286046954.2,N
1499968795.0,286046953.4,N
1499968795.9,286046953.4,N
